Weather History for Anaktuvuk Pass, AK

Change the Weather History Date:

Wednesday, March 13, 2013

  Actual Average Record
Temperature  
Mean Temperature -8 °F -  
Max Temperature 1 °F 0 °F 30 °F (2005)
Min Temperature -16 °F -10 °F -34 °F (2007)
Degree Days  
Heating Degree Days 72    
Moisture  
Dew Point -22 °F    
Average Humidity 44    
Maximum Humidity 65    
Minimum Humidity 35    
Precipitation  
Precipitation 0.00 in - - ()
Sea Level Pressure  
Sea Level Pressure 30.29 in    
Wind  
Wind Speed 9 mph (NNE)    
Max Wind Speed 17 mph    
Max Gust Speed 25 mph    
Visibility 10 miles    
Events      
Averages and records for this station are not official NWS values.
T = Trace of Precipitation, MM = Missing Value Source: NWS Daily Summary

Daily Weather History Graph

Daily Weather History Graph

Search for Another Location

Airport:

Trip Planner

Search our weather history database for the weather conditions in past years. The results will help you decide how hot, cold, wet, or windy it might be!

Date:

Astronomy

Mar. 13, 2013 Rise Set
Actual Time 8:34 AM AKDT 8:00 PM AKDT
Civil Twilight 7:38 AM AKDT 8:56 PM AKDT
Nautical Twilight 6:31 AM AKDT 10:03 PM AKDT
Astronomical Twilight 5:14 AM AKDT 11:21 PM AKDT
Moon 8:05 AM AKDT (3/13) No Moon Set
Length of Visible Light 13h 17m
Length of Day
11h 26m
Waxing Crescent, 4% of the Moon is Illuminated
Mar 13
Waxing Crescent
Mar 19
First Quarter
Mar 27
Full
Apr 2
Last Quarter
Apr 10
New

Hourly Weather History & Observations

Time (AKDT) Temp. Windchill Dew Point Humidity Pressure Visibility Wind Dir Wind Speed Gust Speed Precip Events Conditions
12:16 AM -9.4 °F -22.7 °F -22.0 °F 54% 30.32 in 10.0 mi North 5.8 mph - N/A   Clear
12:36 AM -7.6 °F -20.6 °F -20.2 °F 54% 30.32 in 10.0 mi North 5.8 mph - N/A   Clear
12:56 AM -7.6 °F -23.4 °F -23.8 °F 45% 30.32 in 10.0 mi NNE 8.1 mph - N/A   Clear
1:16 AM -5.8 °F -21.2 °F -16.6 °F 60% 30.32 in 10.0 mi North 8.1 mph - N/A   Clear
1:36 AM -7.6 °F -20.6 °F -25.6 °F 41% 30.31 in 10.0 mi North 5.8 mph - N/A   Clear
1:56 AM -5.8 °F -18.4 °F -18.4 °F 55% 30.31 in 10.0 mi North 5.8 mph - N/A   Clear
2:16 AM -9.4 °F -25.6 °F -27.4 °F 41% 30.31 in 10.0 mi North 8.1 mph - N/A   Clear
2:36 AM -7.6 °F -24.6 °F -16.6 °F 65% 30.31 in 10.0 mi North 9.2 mph - N/A   Clear
2:56 AM -9.4 °F -25.6 °F -23.8 °F 49% 30.31 in 10.0 mi NNE 8.1 mph - N/A   Clear
3:16 AM -7.6 °F -24.6 °F -20.2 °F 54% 30.31 in 10.0 mi NNE 9.2 mph - N/A   Clear
3:36 AM -5.8 °F -22.4 °F -22.0 °F 46% 30.30 in 10.0 mi NNE 9.2 mph - N/A   Clear
3:56 AM -4.0 °F -20.2 °F -20.2 °F 46% 30.30 in 10.0 mi North 9.2 mph - N/A   Clear
4:16 AM -4.0 °F -19.0 °F -23.8 °F 38% 30.30 in 10.0 mi North 8.1 mph - N/A   Clear
4:36 AM -4.0 °F -20.2 °F -22.0 °F 42% 30.30 in 10.0 mi North 9.2 mph - N/A   Clear
4:56 AM -5.8 °F -24.4 °F -23.8 °F 42% 30.30 in 10.0 mi North 11.5 mph - N/A   Clear
5:16 AM -5.8 °F -21.2 °F -23.8 °F 42% 30.30 in 10.0 mi North 8.1 mph - N/A   Clear
5:36 AM -5.8 °F -21.2 °F -23.8 °F 42% 30.30 in 10.0 mi North 8.1 mph - N/A   Clear
5:56 AM -4.0 °F -19.0 °F -23.8 °F 38% 30.30 in 10.0 mi North 8.1 mph - N/A   Clear
6:16 AM -4.0 °F -20.2 °F -23.8 °F 38% 30.30 in 10.0 mi North 9.2 mph - N/A   Clear
6:36 AM -5.8 °F -22.4 °F -25.6 °F 38% 30.30 in 10.0 mi NNE 9.2 mph - N/A   Clear
6:56 AM -5.8 °F -24.4 °F -23.8 °F 42% 30.30 in 10.0 mi NNE 11.5 mph - N/A   Clear
7:16 AM -4.0 °F -21.2 °F -23.8 °F 38% 30.30 in 10.0 mi North 10.4 mph - N/A   Clear
7:36 AM -5.8 °F -22.4 °F -25.6 °F 38% 30.30 in 10.0 mi North 9.2 mph - N/A   Clear
7:56 AM -5.8 °F -23.4 °F -22.0 °F 46% 30.30 in 10.0 mi North 10.4 mph - N/A   Clear
8:16 AM -4.0 °F -20.2 °F -23.8 °F 38% 30.30 in 10.0 mi North 9.2 mph - N/A   Clear
8:36 AM -4.0 °F -19.0 °F -23.8 °F 38% 30.29 in 10.0 mi North 8.1 mph - N/A   Clear
8:56 AM -2.2 °F -16.8 °F -22.0 °F 39% 30.29 in 10.0 mi North 8.1 mph - N/A   Clear
9:16 AM -4.0 °F -19.0 °F -25.6 °F 35% 30.29 in 10.0 mi North 8.1 mph - N/A   Clear
9:36 AM -4.0 °F -21.2 °F -23.8 °F 38% 30.29 in 10.0 mi NNE 10.4 mph - N/A   Clear
9:56 AM -4.0 °F -22.1 °F -23.8 °F 38% 30.29 in 10.0 mi NNE 11.5 mph - N/A   Clear
10:16 AM -2.2 °F -21.5 °F -23.8 °F 35% 30.29 in 10.0 mi NE 13.8 mph - N/A   Clear
10:36 AM -5.8 °F -23.4 °F -25.6 °F 38% 30.29 in 10.0 mi NNE 10.4 mph - N/A   Clear
10:56 AM -2.2 °F -19.9 °F -22.0 °F 39% 30.29 in 10.0 mi NE 11.5 mph - N/A   Clear
11:16 AM -2.2 °F -19.9 °F -20.2 °F 42% 30.29 in 10.0 mi NNE 11.5 mph - N/A   Clear
11:36 AM -2.2 °F -20.7 °F -23.8 °F 35% 30.29 in 10.0 mi NE 12.7 mph - N/A   Clear
12:16 PM -2.2 °F -18.9 °F -22.0 °F 39% 30.29 in 10.0 mi North 10.4 mph - N/A   Clear
12:36 PM -2.2 °F -18.0 °F -20.2 °F 42% 30.29 in 10.0 mi NNE 9.2 mph - N/A   Clear
12:56 PM -0.4 °F -15.7 °F -16.6 °F 46% 30.29 in 10.0 mi NNE 9.2 mph - N/A   Clear
1:16 PM -0.4 °F -15.7 °F -20.2 °F 39% 30.29 in 10.0 mi North 9.2 mph - N/A   Clear
1:36 PM -0.4 °F -18.4 °F -20.2 °F 39% 30.29 in 10.0 mi NNE 12.7 mph - N/A   Clear
1:56 PM -0.4 °F -18.4 °F -20.2 °F 39% 30.29 in 10.0 mi NNE 12.7 mph - N/A   Clear
2:16 PM -0.4 °F -16.7 °F -20.2 °F 39% 30.29 in 10.0 mi NNE 10.4 mph - N/A   Clear
2:36 PM 1.4 °F -16.9 °F -16.6 °F 43% 30.28 in 10.0 mi ENE 13.8 mph 17.3 mph N/A   Clear
2:56 PM 1.4 °F -17.6 °F -16.6 °F 43% 30.29 in 10.0 mi ENE 15.0 mph 23.0 mph N/A   Clear
3:16 PM 1.4 °F -17.6 °F -18.4 °F 39% 30.28 in 10.0 mi ENE 15.0 mph - N/A   Clear
3:36 PM 1.4 °F -18.2 °F -18.4 °F 39% 30.27 in 10.0 mi ENE 16.1 mph 23.0 mph N/A   Clear
3:56 PM 1.4 °F -15.3 °F -18.4 °F 39% 30.27 in 10.0 mi NE 11.5 mph 20.7 mph N/A   Clear
4:16 PM -0.4 °F -15.7 °F -18.4 °F 43% 30.27 in 10.0 mi North 9.2 mph - N/A   Clear
4:36 PM -2.2 °F -18.0 °F -20.2 °F 42% 30.27 in 10.0 mi NNE 9.2 mph - N/A   Clear
4:56 PM 1.4 °F -18.8 °F -11.2 °F 56% 30.27 in 10.0 mi ENE 17.3 mph 25.3 mph N/A   Clear
5:16 PM 1.4 °F -18.8 °F -18.4 °F 39% 30.26 in 10.0 mi ENE 17.3 mph - N/A   Clear
5:36 PM -2.2 °F -18.9 °F -18.4 °F 46% 30.27 in 10.0 mi North 10.4 mph - N/A   Clear
5:56 PM -4.0 °F -24.5 °F -20.2 °F 46% 30.28 in 10.0 mi NE 15.0 mph - N/A   Clear
6:16 PM -2.2 °F -21.5 °F -18.4 °F 46% 30.28 in 10.0 mi NE 13.8 mph - N/A   Clear
6:36 PM -4.0 °F -21.2 °F -20.2 °F 46% 30.29 in 10.0 mi ENE 10.4 mph - N/A   Clear
6:56 PM -5.8 °F -26.0 °F -22.0 °F 46% 30.29 in 10.0 mi NE 13.8 mph - N/A   Clear
7:16 PM -7.6 °F -25.7 °F -23.8 °F 45% 30.29 in 10.0 mi NNE 10.4 mph - N/A   Clear
7:36 PM -7.6 °F -26.6 °F -23.8 °F 45% 30.29 in 10.0 mi NE 11.5 mph - N/A   Clear
7:56 PM -7.6 °F -25.7 °F -23.8 °F 45% 30.30 in 10.0 mi NE 10.4 mph - N/A   Clear
8:16 PM -9.4 °F -28.9 °F -23.8 °F 49% 30.30 in 10.0 mi NE 11.5 mph - N/A   Clear
8:36 PM -9.4 °F -28.9 °F -23.8 °F 49% 30.30 in 10.0 mi NE 11.5 mph - N/A   Clear
8:56 PM -7.6 °F -24.6 °F -23.8 °F 45% 30.29 in 10.0 mi NE 9.2 mph - N/A   Clear
9:16 PM -9.4 °F -27.9 °F -25.6 °F 45% 30.29 in 10.0 mi ENE 10.4 mph - N/A   Clear
9:36 PM -11.2 °F -26.4 °F -25.6 °F 49% 30.29 in 10.0 mi North 6.9 mph - N/A   Clear
9:56 PM -11.2 °F -30.1 °F -27.4 °F 45% 30.29 in 10.0 mi NNE 10.4 mph - N/A   Clear
10:16 PM -14.8 °F -32.2 °F -29.2 °F 48% 30.29 in 10.0 mi NNE 8.1 mph - N/A   Clear
10:36 PM -13.0 °F -32.4 °F -27.4 °F 49% 30.30 in 10.0 mi NNE 10.4 mph - N/A   Clear
10:56 PM -14.8 °F -32.2 °F -27.4 °F 53% 30.29 in 10.0 mi NE 8.1 mph - N/A   Clear
11:16 PM -16.6 °F -32.9 °F -29.2 °F 53% 30.29 in 10.0 mi NNE 6.9 mph - N/A   Clear
11:36 PM -16.6 °F -34.4 °F - N/A% 30.29 in 10.0 mi North 8.1 mph - N/A   Clear
11:56 PM -16.6 °F -36.8 °F -29.2 °F 53% 30.29 in 10.0 mi NNE 10.4 mph - N/A   Clear